Temp
13 14 14 14 13 13 13 13 14 16 16 17 17 17 17 18 17 15 22 25 24 22 23 25 25 26 27 29 29 30 28 28 29 28 27 25 24 23 23 25 27 30 30 28 26
13 13 14 14 14 14 13 13 13 14 16 17 17 17 17 17 16 21 23 23 24 22 25 27 28 27 29 30 30 28 28 29 30 30 28 25 24 24 24 25 29 29 29 26 26
10 13 13 14 13 14 14 13 13 13 15 16 16 16 17 15 22 29 24 23 23 23 26 28 28 29 30 30 30 29 30 31 32 31 28 26 25 27 27 28 28 27 27 27 26
12 11 12 13 14 14 13 14 14 14 14 15 16 16 17 16 29 26 23 23 23 24 27 28 29 29 30 29 28 28 31 32 32 31 28 27 27 27 29 28 30 28 28 27 28
11 11 10 12 14 13 13 14 15 16 15 16 16 16 15 23 28 22 23 22 22 25 27 29 29 31 31 30 28 29 32 32 32 28 29 29 28 28 24 27 28 27 28 28 29
9 10 11 11 12 13 14 15 16 17 17 16 15 16 19 26 24 22 23 23 24 26 28 29 30 31 32 31 31 32 32 33 33 32 32 30 29 28 26 27 26 26 28 29 29
9 10 9 11 12 13 14 16 16 17 18 17 16 13 22 27 23 23 24 25 25 27 29 29 30 30 32 31 32 32 32 33 32 33 32 32 28 29 27 28 26 27 28 28 29
10 9 9 9 12 14 14 15 16 18 19 17 16 16 26 23 23 24 24 25 25 27 28 28 28 31 31 31 31 32 33 34 32 32 31 31 29 29 27 27 27 29 29 29 29
9 10 9 9 9 13 15 13 13 17 18 16 16 19 27 21 24 25 25 25 26 26 27 27 29 30 30 31 32 32 34 34 32 33 31 31 29 26 27 27 29 29 30 30 29
10 9 9 9 9 13 15 15 14 14 14 15 18 21 24 26 25 25 26 26 27 28 28 28 30 30 31 32 32 33 34 34 33 32 32 32 31 29 25 25 26 27 28 30 30
11 11 9 9 11 15 14 16 21 21 20 26 26 26 27 27 25 25 25 27 27 28 28 28 29 29 31 32 32 34 34 34 33 33 33 33 33 29 27 26 24 24 26 30 31
12 11 10 10 15 18 15 23 23 21 24 26 25 25 25 27 26 27 26 27 27 27 29 28 28 32 32 31 31 32 33 33 33 33 33 33 33 31 27 29 28 28 28 29 31
10 11 15 16 17 17 19 22 20 20 24 26 26 26 27 26 28 27 28 28 27 28 28 29 31 31 30 30 31 32 33 33 33 33 33 33 31 30 30 27 30 30 30 31 31
14 17 18 18 17 18 22 20 19 19 25 26 25 27 27 29 28 28 28 29 28 28 28 30 31 29 30 31 32 32 33 32 32 33 33 34 31 31 30 28 26 29 31 32 32
17 19 20 19 17 22 21 20 20 22 23 26 26 27 29 29 28 27 29 29 28 29 29 29 29 29 30 31 32 33 32 32 33 33 33 33 34 31 31 30 27 27 28 29 32
19 20 20 18 16 21 20 20 21 24 23 26 27 27 27 29 29 28 28 29 30 29 29 31 31 31 31 32 31 32 31 31 32 34 32 35 35 32 31 30 31 28 30 30 30
20 20 20 19 23 20 19 23 24 23 25 25 26 28 28 28 28 27 27 28 28 27 28 29 29 30 30 30 31 31 32 31 30 31 33 35 34 30 28 28 28 27 28 31 31
21 20 20 18 18 18 21 25 22 23 23 24 24 27 27 28 28 28 28 27 27 29 29 29 27 29 29 31 30 31 32 33 30 32 33 33 32 28 28 27 27 27 28 31 32
20 20 22 21 19 18 25 24 22 22 22 22 24 26 26 27 27 27 27 27 26 27 29 29 27 28 27 29 29 31 31 34 34 34 34 33 29 29 28 26 25 23 23 25 31
21 23 24 21 19 22 26 21 22 22 21 23 23 25 26 26 26 26 26 24 25 25 27 29 26 27 27 28 29 31 33 31 32 31 31 32 30 30 25 23 22 20 20 22 28
21 26 23 21 21 26 24 22 21 22 22 23 22 24 25 25 26 25 24 23 23 25 27 29 29 27 27 28 29 29 30 31 34 33 33 31 30 24 22 20 20 19 19 20 21
24 25 23 21 25 24 23 22 18 21 22 23 23 22 23 23 23 23 23 21 22 24 26 26 29 27 27 25 25 27 28 30 31 30 33 33 27 25 24 20 20 19 18 19 19
24 24 23 23 24 23 22 21 21 21 19 20 21 21 21 21 21 22 21 21 22 23 24 25 28 26 26 26 25 27 27 27 29 31 32 32 26 26 24 23 21 19 19 18 18
24 24 24 24 22 23 21 21 20 20 20 21 20 22 22 21 22 20 22 21 22 22 19 23 26 26 28 27 28 26 26 26 29 31 31 31 24 24 24 23 23 22 20 19 19
22 21 19 21 21 21 21 20 20 20 20 21 21 21 22 21 22 21 21 21 22 20 22 25 24 25 25 25 25 25 25 26 27 27 29 28 26 24 23 23 23 23 22 22 21
23 22 21 20 19 21 19 19 19 19 20 19 20 21 22 21 22 21 22 22 20 22 21 23 22 24 23 23 24 24 24 24 25 25 26 27 24 24 23 23 22 22 21 21 21
18 18 22 15 20 21 19 19 19 19 18 19 19 20 19 18 19 20 21 21 20 21 21 21 21 22 24 22 23 24 25 25 25 25 26 26 25 23 22 22 22 21 21 20 20
Height
810 807 805 803 800 798 796 793 791 789 787 786 784 782 780 779 778 779 775 771 772 775 779 782 783 783 783 778 777 774 789 791 787 789 796 795 799 800 802 803 798 794 794 806 817
809 806 803 801 798 796 794 792 789 787 786 784 783 781 779 778 779 774 768 767 769 774 777 777 778 781 779 776 774 782 789 787 771 773 786 792 796 801 804 802 796 797 801 812 819
808 804 802 799 796 794 792 790 788 785 784 783 781 780 779 778 775 758 761 765 768 773 776 776 776 776 776 774 774 777 783 769 766 768 779 790 797 792 797 798 795 802 806 812 819
805 803 800 797 794 792 789 787 785 783 782 781 780 779 779 780 765 760 761 764 767 773 775 776 774 776 775 782 779 786 769 768 766 770 782 789 790 793 787 793 786 798 805 811 817
803 800 797 794 791 788 786 784 782 781 780 779 779 778 779 773 759 760 758 765 770 772 772 772 773 771 775 775 781 783 769 766 767 778 777 779 788 792 803 795 793 801 807 812 815
801 798 795 792 789 786 783 781 778 777 777 777 777 778 777 767 762 761 763 768 771 771 771 771 770 768 768 771 773 767 767 766 764 769 771 778 785 789 798 796 802 806 808 812 815
800 796 793 790 786 783 780 777 774 772 773 775 776 779 773 758 762 763 765 768 771 771 770 771 771 772 764 772 764 766 773 765 767 764 773 768 794 790 794 797 805 806 809 813 815
797 795 791 788 783 780 777 773 770 768 769 773 776 780 759 761 763 764 765 768 772 772 772 774 774 767 768 764 769 772 767 774 769 768 771 775 796 788 795 800 805 801 807 811 815
795 792 788 785 781 776 774 772 769 766 768 773 778 777 755 761 762 763 765 767 771 773 774 777 773 769 771 773 775 769 770 769 779 764 772 776 793 796 794 798 799 801 805 809 814
792 788 785 781 777 773 771 771 771 772 774 777 777 776 758 753 756 763 764 766 769 771 775 776 771 775 769 768 780 773 766 768 771 774 769 778 784 788 802 805 806 808 807 806 811
787 783 780 776 772 769 771 773 772 771 771 753 752 753 748 751 757 760 764 765 768 769 775 773 777 777 765 759 758 751 760 767 769 762 767 771 772 789 794 801 810 812 811 803 805
782 778 776 773 769 767 770 767 766 770 760 751 754 755 754 751 754 757 762 763 767 773 764 778 779 758 755 761 768 764 766 769 771 766 769 773 777 777 793 790 792 799 802 801 801
779 775 773 771 770 770 771 769 770 770 759 745 747 748 748 752 748 754 756 754 764 766 766 770 759 754 764 770 772 766 765 768 769 771 766 771 787 787 782 794 786 787 789 792 795
776 774 772 772 774 772 769 769 768 767 756 746 746 742 744 740 748 748 751 752 758 762 765 759 752 765 768 767 762 769 757 765 772 775 780 764 801 785 785 796 799 792 787 787 792
775 772 772 771 773 770 770 768 766 765 766 744 740 736 732 738 740 750 747 749 759 758 761 761 762 767 768 762 758 760 758 768 769 773 775 773 773 789 781 790 801 797 796 792 787
774 772 770 771 771 769 768 767 766 764 768 746 735 740 741 735 738 744 748 747 740 754 755 748 745 753 754 753 758 753 768 771 770 768 792 760 765 790 789 794 787 794 785 786 792
772 771 769 769 765 767 766 763 761 766 745 755 744 736 736 740 741 749 752 755 758 769 766 760 759 753 753 762 758 764 768 791 799 795 784 753 771 794 797 795 794 797 791 780 781
771 769 768 767 765 764 763 754 773 763 762 753 752 738 746 738 742 746 750 758 753 750 754 764 786 762 761 756 763 764 758 767 799 789 774 768 784 805 795 796 796 793 784 773 774
770 769 767 766 762 763 755 756 774 771 770 766 754 748 752 747 749 749 752 759 764 756 752 756 774 767 767 762 762 761 764 738 753 746 758 769 794 790 795 803 806 809 802 793 774
769 765 764 764 761 759 749 771 770 770 771 762 764 752 751 752 753 755 760 771 766 762 753 749 777 768 771 765 761 755 747 772 760 786 784 776 790 792 811 817 815 813 809 804 784
766 757 762 762 760 750 760 769 773 769 770 765 770 759 754 758 750 762 772 776 774 766 759 751 755 777 769 773 767 769 765 761 746 754 766 784 787 808 821 825 824 823 819 811 805
761 758 761 759 756 759 766 771 778 774 768 766 766 771 769 765 772 773 780 784 780 770 766 764 752 772 775 784 782 773 769 762 767 775 755 750 805 806 813 825 824 825 822 819 814
762 762 761 757 759 768 774 777 778 773 778 775 776 773 775 778 784 779 784 787 780 775 775 770 762 785 788 785 782 777 780 776 767 758 761 767 808 801 809 818 821 825 826 824 821
765 764 763 764 770 769 776 780 781 780 780 778 779 774 773 779 774 789 785 788 783 779 786 774 770 771 767 770 767 787 785 781 772 766 763 770 807 809 813 816 817 819 825 826 826
770 779 783 777 779 777 777 783 783 785 782 780 781 779 775 783 781 786 786 787 784 787 781 772 785 780 782 784 782 785 788 787 783 782 778 781 796 808 813 818 820 820 822 824 825
771 775 780 784 788 781 787 788 788 789 787 790 788 783 775 785 781 788 784 783 794 787 788 783 795 787 793 793 792 793 791 795 795 792 789 786 807 810 815 818 822 825 826 828 830
787 786 778 797 784 780 792 792 794 793 797 794 793 790 795 799 795 793 791 790 793 790 793 793 796 798 791 803 799 797 786 790 790 792 789 798 796 811 817 821 824 827 830 833 834
Wind_Speed
15 15 15 15 15 15 14 13 13 12 10 10 11 10 9 8 6 5 10 6 10 23 20 18 14 14 14 7 5 3 2 7 7 7 8 10 5 1 1 5 6 5 10 26 29
15 16 15 15 15 15 14 13 13 12 11 9 10 11 6 6 7 14 10 14 17 28 22 21 16 17 10 7 4 3 1 6 5 8 15 11 11 9 4 11 7 11 20 29 28
16 16 16 16 16 16 15 15 13 13 11 9 8 7 5 3 7 2 6 18 24 27 20 15 16 14 8 7 5 1 2 6 12 15 16 15 9 10 13 11 12 17 24 27 27
16 18 17 16 16 16 16 15 14 13 12 8 8 3 4 4 1 3 3 23 28 23 20 15 16 13 10 7 3 3 0 4 7 11 14 16 14 7 6 2 11 17 26 27 23
16 17 17 17 17 17 17 16 14 15 12 8 6 3 2 7 3 4 12 25 28 23 23 17 16 13 12 9 8 10 3 1 2 11 8 13 13 10 4 4 14 20 26 24 22
17 18 17 17 17 17 18 17 16 13 13 8 5 3 7 7 4 8 18 23 24 24 21 16 11 7 10 9 9 2 4 3 2 13 10 11 13 9 7 13 19 21 22 21 21
19 18 17 17 17 18 18 17 16 13 10 9 6 5 9 3 2 13 19 19 20 21 17 17 9 12 4 7 6 6 7 7 3 11 9 9 12 5 16 17 20 22 19 19 20
19 19 19 18 18 17 18 12 11 9 7 7 7 7 4 2 7 16 16 16 13 15 14 10 10 8 9 3 7 10 8 10 9 11 7 9 11 14 18 20 19 20 19 18 18
18 18 19 19 18 16 12 4 12 7 8 9 5 8 5 7 13 16 18 19 16 11 11 10 12 11 7 12 10 10 12 7 9 5 10 8 11 14 18 17 19 18 18 18 18
20 19 20 19 17 15 1 6 7 8 8 5 4 6 6 12 17 15 14 18 15 12 12 12 10 11 12 12 14 15 9 7 10 9 11 8 12 15 14 15 16 14 13 19 19
21 23 22 18 16 10 8 3 5 6 8 7 1 5 11 11 19 16 17 19 14 14 14 16 11 18 21 17 6 8 11 10 6 11 7 8 9 11 19 17 13 15 19 19 20
22 21 19 16 10 5 7 4 6 5 7 13 12 9 5 14 13 17 21 12 17 17 15 12 18 16 17 11 9 11 12 12 7 6 5 6 6 11 14 13 18 20 18 20 21
21 17 14 9 6 3 2 3 2 7 7 6 9 12 13 12 17 21 21 10 18 20 18 14 12 12 15 15 14 13 14 12 8 6 3 6 7 9 12 9 13 14 17 19 20
16 12 9 3 2 0 2 3 10 6 5 10 9 10 11 13 12 26 25 12 11 19 18 15 7 17 18 18 17 15 7 4 9 8 8 10 6 7 11 11 7 8 14 17 19
13 10 7 1 3 4 2 9 2 5 5 4 8 7 17 19 19 21 26 12 15 16 12 13 13 20 19 17 16 8 10 9 8 9 4 11 7 7 8 11 11 10 11 12 17
9 8 5 2 4 5 7 6 4 7 2 3 7 12 17 12 19 23 18 7 8 13 16 8 13 16 15 13 13 7 10 9 8 9 10 9 12 7 6 4 5 2 15 18 17
2 5 9 3 5 8 8 5 6 4 5 4 2 16 17 15 15 22 21 16 10 16 16 12 15 7 5 14 16 13 16 11 10 8 8 11 7 10 8 7 8 5 8 17 19
4 5 5 5 9 7 7 10 1 7 6 8 2 11 10 16 17 19 14 10 3 10 15 14 13 14 3 11 13 20 19 11 13 12 12 7 8 8 11 10 11 11 11 4 20
6 2 3 13 4 3 8 1 5 7 6 7 7 10 13 7 10 15 5 8 3 5 9 14 9 7 4 2 7 20 16 7 7 8 9 13 14 15 10 12 14 14 13 13 5
4 4 5 12 2 7 4 5 4 8 5 3 5 3 14 13 14 12 6 3 3 7 7 1 11 2 3 4 2 7 13 10 9 14 13 10 17 10 8 12 14 17 17 15 2
5 5 8 10 3 3 1 5 5 8 5 4 1 2 8 6 9 5 3 6 6 4 3 3 6 8 7 2 2 7 11 10 9 5 14 9 7 8 6 7 11 12 13 15 18
5 3 13 6 3 1 4 4 3 6 6 6 6 6 6 4 7 4 6 6 8 4 2 2 4 11 9 6 1 2 5 9 10 12 6 6 7 9 10 7 9 12 13 14 16
2 3 10 6 1 5 4 6 9 10 10 5 6 7 4 3 5 6 4 5 8 4 3 2 7 9 10 7 4 3 2 2 8 8 13 10 8 10 10 10 11 12 12 13 16
2 1 4 6 3 4 5 5 3 8 11 8 4 2 5 6 5 6 7 5 5 8 6 6 2 5 4 7 6 8 3 1 7 10 8 4 18 13 10 11 11 12 13 13 14
4 4 3 3 6 5 5 3 5 3 5 7 6 5 3 5 10 7 4 5 8 6 3 4 4 6 9 8 6 4 4 3 1 5 5 17 16 12 11 11 11 11 12 13 14
2 0 3 5 2 4 2 6 7 5 7 8 9 9 5 8 6 7 7 3 4 5 4 4 3 4 3 3 3 4 4 3 3 3 6 10 14 11 9 9 10 11 12 13 14
3 2 4 1 2 1 4 3 4 3 7 6 6 8 10 9 8 8 8 6 6 3 4 1 6 5 4 1 2 8 11 9 6 5 6 9 13 9 10 8 8 10 12 13 13
Wind_Direction
349 348 348 347 345 345 343 341 340 339 334 326 319 321 314 308 303 250 233 212 183 167 156 156 166 173 185 206 237 244 290 36 51 126 134 145 130 39 13 160 209 141 148 147 149
345 343 344 344 342 340 338 336 334 330 329 317 317 321 308 311 270 252 234 195 174 166 169 168 166 168 194 201 217 234 277 48 46 133 148 144 141 142 165 176 148 123 119 146 152
340 339 341 340 338 336 336 331 326 323 321 314 308 320 305 316 270 179 198 180 171 168 174 177 163 182 186 191 193 227 49 56 57 106 139 145 147 168 174 183 161 147 146 152 159
335 334 335 334 333 334 330 326 321 314 313 306 299 300 299 266 224 42 269 175 169 172 175 178 181 189 195 186 166 260 137 32 61 107 149 163 158 194 175 28 154 157 154 155 164
332 332 331 332 331 328 325 321 315 309 302 292 285 256 247 227 264 351 160 167 163 173 182 182 187 199 204 174 156 236 152 115 182 140 170 156 163 157 126 142 128 156 157 159 165
334 335 332 328 327 325 321 318 311 301 296 268 247 211 241 242 358 141 146 159 173 180 182 188 198 198 214 204 223 151 248 282 241 167 153 168 151 129 138 140 142 151 162 163 169
333 332 330 326 324 324 320 319 311 296 275 250 203 214 248 357 44 150 154 165 174 185 183 194 206 204 188 185 214 238 253 185 88 168 161 173 168 194 147 150 150 159 166 168 172
332 329 327 323 324 323 322 329 322 297 240 208 176 228 268 171 163 157 159 156 165 192 192 166 213 205 240 66 205 228 226 188 127 162 141 203 142 133 151 156 166 163 166 172 173
332 334 328 323 320 319 330 46 39 70 135 141 160 235 177 139 164 167 164 162 159 160 179 184 192 207 181 213 195 204 199 190 145 189 156 207 128 146 158 174 167 170 170 174 175
341 334 328 323 321 317 148 104 95 62 102 166 256 228 194 188 154 163 174 162 165 150 162 192 196 198 215 203 201 188 213 179 148 175 165 195 112 154 172 172 171 183 202 177 181
336 334 330 325 320 320 129 156 202 171 208 258 104 287 134 129 149 169 165 168 174 182 183 194 202 205 192 205 323 184 198 161 127 150 201 168 143 162 163 180 175 180 200 200 189
335 332 331 329 339 77 149 283 31 359 287 220 240 252 226 170 163 164 166 172 178 185 183 180 219 199 191 182 196 203 183 141 120 138 255 158 135 155 164 200 185 194 194 202 192
335 335 341 355 106 78 250 334 279 306 256 169 208 222 188 198 176 166 186 179 190 187 189 196 196 179 187 185 194 199 199 155 158 159 177 156 148 157 171 165 193 202 191 195 191
345 351 3 73 109 144 236 305 303 223 265 146 195 203 186 196 185 174 190 187 186 191 194 218 162 183 197 194 203 186 215 158 172 212 199 209 144 143 161 166 213 213 197 193 192
353 4 5 270 317 244 17 322 238 218 252 110 149 124 165 199 135 177 184 197 191 186 192 184 178 190 195 197 204 212 155 200 200 224 226 195 248 108 166 174 172 197 211 222 200
3 14 353 355 252 269 315 319 217 231 77 131 147 175 172 187 180 162 186 221 208 177 210 172 196 194 197 195 201 129 176 176 202 224 221 190 245 81 82 41 117 279 224 208 219
6 50 33 300 317 305 301 226 225 287 337 43 145 171 176 166 150 170 181 193 181 177 190 159 176 141 254 196 198 191 183 174 196 202 230 146 218 78 80 49 18 0 290 234 199
314 239 350 318 297 291 244 228 308 7 10 358 290 221 153 142 158 166 179 162 172 242 181 170 171 187 186 229 188 206 201 193 189 200 174 159 172 108 85 59 38 15 352 207 204
328 224 284 341 305 228 246 241 24 3 354 341 291 184 143 155 160 174 143 95 56 284 215 186 122 131 85 248 275 193 223 283 259 209 190 157 91 123 85 51 40 31 31 360 229
293 254 25 345 291 250 263 83 95 18 343 235 282 274 156 151 160 161 173 54 68 15 319 150 134 173 112 199 184 270 212 205 235 182 211 166 168 103 49 27 25 21 23 9 33
249 258 25 348 259 263 64 73 65 22 349 337 70 110 83 119 125 117 71 77 13 19 334 239 219 142 178 289 159 176 203 234 246 259 216 159 143 84 59 39 37 33 26 26 28
297 269 1 335 243 37 70 13 343 26 7 62 62 52 61 90 85 97 105 31 346 318 122 6 242 164 109 117 254 302 346 249 221 198 251 273 99 118 91 70 60 49 43 39 42
5 13 12 289 190 107 113 91 46 25 41 30 47 45 65 85 111 101 92 43 10 40 38 20 173 155 161 159 181 189 128 244 272 291 206 237 120 130 115 100 77 66 55 49 47
291 222 71 58 47 90 128 64 107 42 52 59 59 98 126 75 88 138 123 74 50 45 350 261 89 332 203 90 108 149 122 24 271 230 199 224 128 138 113 95 84 79 69 57 54
352 59 7 31 52 52 81 57 86 75 56 15 55 62 82 126 115 123 126 127 66 15 30 359 104 78 71 74 77 108 112 53 54 358 279 132 135 129 112 97 82 77 72 67 55
15 36 95 75 67 85 89 60 68 90 2 56 82 56 75 82 357 143 139 83 59 48 38 355 123 133 91 36 0 255 195 160 133 113 94 125 120 121 120 111 90 76 66 58 50
52 82 306 146 115 112 44 62 83 85 57 64 82 86 85 70 70 79 69 71 74 30 82 40 153 196 189 235 271 243 219 203 164 172 171 188 121 145 134 116 92 82 67 51 38